Time,TemperatureF,DewpointF,PressureIn,WindDirection,WindDirectionDegrees,WindSpeedMPH,WindSpeedGustMPH,Humidity,HourlyPrecipIn,Conditions,Clouds,dailyrainin,SoftwareType,DateUTC
2013-03-22 00:09:00,13.5,10.0,30.09,ENE,63,0.0,0.0,87,0.00,,,0.00,weatherlink.com 1.10,2013-03-22 05:09:00,
2013-03-22 00:24:00,13.3,8.0,30.10,ENE,63,0.0,0.0,80,0.00,,,0.00,weatherlink.com 1.10,2013-03-22 05:24:00,
2013-03-22 00:39:00,13.2,8.0,30.09,ENE,63,0.0,0.0,81,0.00,,,0.00,weatherlink.com 1.10,2013-03-22 05:39:00,
2013-03-22 00:54:00,13.2,8.0,30.10,ENE,63,0.0,0.0,81,0.00,,,0.00,weatherlink.com 1.10,2013-03-22 05:54:00,
2013-03-22 01:09:00,12.9,8.0,30.10,ENE,63,0.0,0.0,81,0.00,,,0.00,weatherlink.com 1.10,2013-03-22 06:09:00,
2013-03-22 01:24:00,12.4,7.0,30.09,ENE,63,0.0,0.0,80,0.00,,,0.00,weatherlink.com 1.10,2013-03-22 06:24:00,
2013-03-22 01:39:00,11.9,7.0,30.10,ENE,63,0.0,0.0,81,0.00,,,0.00,weatherlink.com 1.10,2013-03-22 06:39:00,
2013-03-22 01:54:00,11.8,7.0,30.10,ENE,63,0.0,0.0,81,0.00,,,0.00,weatherlink.com 1.10,2013-03-22 06:54:00,
2013-03-22 02:09:00,11.8,7.0,30.10,ENE,63,0.0,0.0,81,0.00,,,0.00,weatherlink.com 1.10,2013-03-22 07:09:00,
2013-03-22 02:24:00,11.6,7.0,30.09,ENE,63,0.0,0.0,81,0.00,,,0.00,weatherlink.com 1.10,2013-03-22 07:24:00,
2013-03-22 02:39:00,11.6,7.0,30.09,ENE,63,0.0,0.0,81,0.00,,,0.00,weatherlink.com 1.10,2013-03-22 07:39:00,
2013-03-22 02:54:00,11.7,7.0,30.09,ENE,63,0.0,0.0,81,0.00,,,0.00,weatherlink.com 1.10,2013-03-22 07:54:00,
2013-03-22 03:09:00,11.8,7.0,30.09,ENE,63,0.0,0.0,81,0.00,,,0.00,weatherlink.com 1.10,2013-03-22 08:09:00,
2013-03-22 03:24:00,11.7,7.0,30.09,ENE,63,0.0,0.0,81,0.00,,,0.00,weatherlink.com 1.10,2013-03-22 08:24:00,
2013-03-22 03:39:00,11.5,7.0,30.09,ENE,63,0.0,0.0,81,0.00,,,0.00,weatherlink.com 1.10,2013-03-22 08:39:00,
2013-03-22 03:54:00,11.4,7.0,30.08,ENE,63,0.0,0.0,82,0.00,,,0.00,weatherlink.com 1.10,2013-03-22 08:54:00,
2013-03-22 04:09:00,11.3,7.0,30.08,ENE,63,0.0,0.0,82,0.00,,,0.00,weatherlink.com 1.10,2013-03-22 09:09:00,
2013-03-22 04:24:00,11.2,7.0,30.08,ENE,63,0.0,0.0,82,0.00,,,0.00,weatherlink.com 1.10,2013-03-22 09:24:00,
2013-03-22 04:39:00,11.1,7.0,30.08,ENE,63,0.0,0.0,82,0.00,,,0.00,weatherlink.com 1.10,2013-03-22 09:39:00,
2013-03-22 04:54:00,11.0,7.0,30.08,ENE,63,0.0,0.0,83,0.00,,,0.00,weatherlink.com 1.10,2013-03-22 09:54:00,
2013-03-22 05:09:00,10.8,7.0,30.08,ENE,63,0.0,0.0,83,0.00,,,0.00,weatherlink.com 1.10,2013-03-22 10:09:00,
2013-03-22 05:24:00,10.9,7.0,30.08,ENE,63,0.0,0.0,83,0.00,,,0.00,weatherlink.com 1.10,2013-03-22 10:24:00,
2013-03-22 05:39:00,11.0,7.0,30.08,ENE,63,0.0,1.0,83,0.00,,,0.00,weatherlink.com 1.10,2013-03-22 10:39:00,
2013-03-22 05:54:00,11.4,7.0,30.07,ENE,63,0.0,1.0,83,0.00,,,0.00,weatherlink.com 1.10,2013-03-22 10:54:00,
2013-03-22 06:09:00,11.5,7.0,30.07,ENE,63,0.0,1.0,82,0.00,,,0.00,weatherlink.com 1.10,2013-03-22 11:09:00,
2013-03-22 06:24:00,11.8,7.0,30.07,ENE,63,0.0,2.0,81,0.00,,,0.00,weatherlink.com 1.10,2013-03-22 11:24:00,
2013-03-22 06:39:00,11.9,7.0,30.07,ENE,63,0.0,0.0,80,0.00,,,0.00,weatherlink.com 1.10,2013-03-22 11:39:00,
2013-03-22 06:54:00,11.6,7.0,30.08,ENE,63,0.0,0.0,80,0.00,,,0.00,weatherlink.com 1.10,2013-03-22 11:54:00,
2013-03-22 07:09:00,11.2,6.0,30.07,ENE,63,0.0,0.0,80,0.00,,,0.00,weatherlink.com 1.10,2013-03-22 12:09:00,
2013-03-22 07:24:00,11.0,6.0,30.08,ENE,63,0.0,0.0,80,0.00,,,0.00,weatherlink.com 1.10,2013-03-22 12:24:00,
2013-03-22 07:39:00,10.9,6.0,30.08,ENE,63,0.0,0.0,81,0.00,,,0.00,weatherlink.com 1.10,2013-03-22 12:39:00,
2013-03-22 07:54:00,12.0,7.0,30.08,ENE,63,0.0,0.0,81,0.00,,,0.00,weatherlink.com 1.10,2013-03-22 12:54:00,
2013-03-22 08:09:00,14.2,9.0,30.08,ENE,63,0.0,2.0,78,0.00,,,0.00,weatherlink.com 1.10,2013-03-22 13:09:00,
2013-03-22 08:24:00,15.5,9.0,30.08,ENE,63,0.0,3.0,74,0.00,,,0.00,weatherlink.com 1.10,2013-03-22 13:24:00,
2013-03-22 08:39:00,16.0,8.0,30.08,ENE,63,0.0,4.0,71,0.00,,,0.00,weatherlink.com 1.10,2013-03-22 13:39:00,
2013-03-22 08:54:00,16.8,9.0,30.08,ENE,63,1.0,4.0,70,0.00,,,0.00,weatherlink.com 1.10,2013-03-22 13:54:00,
2013-03-22 09:10:00,17.1,8.0,30.07,NE,56,1.0,7.0,67,0.00,,,0.00,weatherlink.com 1.10,2013-03-22 14:10:00,
2013-03-22 09:25:00,18.2,9.0,30.07,NE,56,0.0,4.0,68,0.00,,,0.00,weatherlink.com 1.10,2013-03-22 14:25:00,
2013-03-22 09:40:00,18.8,9.0,30.07,ENE,59,0.0,5.0,66,0.00,,,0.00,weatherlink.com 1.10,2013-03-22 14:40:00,
2013-03-22 09:55:00,19.9,9.0,30.07,ENE,59,2.0,4.0,64,0.00,,,0.00,weatherlink.com 1.10,2013-03-22 14:55:00,
2013-03-22 10:10:00,19.7,9.0,30.07,ENE,60,3.0,6.0,64,0.00,,,0.00,weatherlink.com 1.10,2013-03-22 15:10:00,
2013-03-22 10:25:00,21.3,10.0,30.07,ENE,61,0.0,4.0,62,0.00,,,0.00,weatherlink.com 1.10,2013-03-22 15:25:00,
2013-03-22 10:40:00,21.7,10.0,30.07,ENE,61,2.0,5.0,62,0.00,,,0.00,weatherlink.com 1.10,2013-03-22 15:40:00,
2013-03-22 10:55:00,23.2,11.0,30.07,ENE,60,1.0,4.0,61,0.00,,,0.00,weatherlink.com 1.10,2013-03-22 15:55:00,
2013-03-22 11:10:00,24.0,11.0,30.06,ENE,63,3.0,5.0,58,0.00,,,0.00,weatherlink.com 1.10,2013-03-22 16:10:00,
2013-03-22 11:25:00,24.2,11.0,30.06,ENE,66,1.0,5.0,57,0.00,,,0.00,weatherlink.com 1.10,2013-03-22 16:25:00,
2013-03-22 11:40:00,24.5,11.0,30.06,NE,53,2.0,6.0,57,0.00,,,0.00,weatherlink.com 1.10,2013-03-22 16:40:00,
2013-03-22 11:55:00,26.2,12.0,30.07,South,169,2.0,6.0,55,0.00,,,0.00,weatherlink.com 1.10,2013-03-22 16:55:00,
2013-03-22 12:10:00,27.1,13.0,30.06,SSE,154,0.0,5.0,55,0.00,,,0.00,weatherlink.com 1.10,2013-03-22 17:10:00,
2013-03-22 12:25:00,26.7,12.0,30.06,ESE,106,3.0,7.0,55,0.00,,,0.00,weatherlink.com 1.10,2013-03-22 17:25:00,
2013-03-22 12:40:00,27.5,14.0,30.06,ESE,123,2.0,5.0,56,0.00,,,0.00,weatherlink.com 1.10,2013-03-22 17:40:00,
2013-03-22 12:55:00,27.1,13.0,30.06,SE,126,1.0,5.0,55,0.00,,,0.00,weatherlink.com 1.10,2013-03-22 17:55:00,
2013-03-22 13:10:00,27.2,12.0,30.05,ENE,75,3.0,7.0,54,0.00,,,0.00,weatherlink.com 1.10,2013-03-22 18:10:00,
2013-03-22 13:25:00,27.9,13.0,30.06,SSE,159,0.0,5.0,54,0.00,,,0.00,weatherlink.com 1.10,2013-03-22 18:25:00,
2013-03-22 13:40:00,27.8,13.0,30.06,SE,137,0.0,5.0,53,0.00,,,0.00,weatherlink.com 1.10,2013-03-22 18:40:00,
2013-03-22 13:55:00,27.9,14.0,30.05,ESE,107,0.0,7.0,55,0.00,,,0.00,weatherlink.com 1.10,2013-03-22 18:55:00,
2013-03-22 14:10:00,29.1,15.0,30.05,SE,125,1.0,5.0,55,0.00,,,0.00,weatherlink.com 1.10,2013-03-22 19:10:00,
2013-03-22 14:25:00,29.0,15.0,30.05,SE,132,2.0,4.0,55,0.00,,,0.00,weatherlink.com 1.10,2013-03-22 19:25:00,
2013-03-22 14:40:00,30.0,15.0,30.05,SSE,149,1.0,6.0,54,0.00,,,0.00,weatherlink.com 1.10,2013-03-22 19:40:00,
2013-03-22 14:55:00,29.7,15.0,30.05,SSE,153,2.0,5.0,54,0.00,,,0.00,weatherlink.com 1.10,2013-03-22 19:55:00,
2013-03-22 15:10:00,30.6,16.0,30.05,South,169,2.0,4.0,55,0.00,,,0.00,weatherlink.com 1.10,2013-03-22 20:10:00,
2013-03-22 15:25:00,31.3,15.0,30.05,South,171,1.0,4.0,52,0.00,,,0.00,weatherlink.com 1.10,2013-03-22 20:25:00,
2013-03-22 15:40:00,31.2,17.0,30.04,South,171,1.0,3.0,56,0.00,,,0.00,weatherlink.com 1.10,2013-03-22 20:40:00,
2013-03-22 15:55:00,31.5,15.0,30.04,South,173,0.0,3.0,51,0.00,,,0.00,weatherlink.com 1.10,2013-03-22 20:55:00,
2013-03-22 16:10:00,30.7,16.0,30.04,South,171,0.0,4.0,54,0.00,,,0.00,weatherlink.com 1.10,2013-03-22 21:10:00,
2013-03-22 16:25:00,30.8,16.0,30.04,South,171,0.0,2.0,54,0.00,,,0.00,weatherlink.com 1.10,2013-03-22 21:25:00,
2013-03-22 16:40:00,29.9,16.0,30.04,South,171,2.0,3.0,56,0.00,,,0.00,weatherlink.com 1.10,2013-03-22 21:40:00,
2013-03-22 16:55:00,29.2,16.0,30.04,South,171,1.0,5.0,57,0.00,,,0.00,weatherlink.com 1.10,2013-03-22 21:55:00,
2013-03-22 17:11:00,28.8,15.0,30.05,South,171,0.0,3.0,57,0.00,,,0.00,weatherlink.com 1.10,2013-03-22 22:11:00,
2013-03-22 17:25:00,28.6,15.0,30.04,South,171,0.0,4.0,56,0.00,,,0.00,weatherlink.com 1.10,2013-03-22 22:25:00,
2013-03-22 17:41:00,28.6,15.0,30.05,West,275,3.0,7.0,56,0.00,,,0.00,weatherlink.com 1.10,2013-03-22 22:41:00,
2013-03-22 17:56:00,28.1,13.0,30.04,NW,309,4.0,5.0,54,0.00,,,0.00,weatherlink.com 1.10,2013-03-22 22:56:00,
2013-03-22 18:11:00,27.5,13.0,30.05,NW,317,0.0,4.0,54,0.00,,,0.00,weatherlink.com 1.10,2013-03-22 23:11:00,
2013-03-22 18:26:00,27.0,13.0,30.05,NW,322,4.0,5.0,57,0.00,,,0.00,weatherlink.com 1.10,2013-03-22 23:26:00,
2013-03-22 18:41:00,26.7,14.0,30.05,NE,42,2.0,6.0,58,0.00,,,0.00,weatherlink.com 1.10,2013-03-22 23:41:00,
2013-03-22 18:56:00,26.5,13.0,30.05,NE,44,0.0,4.0,58,0.00,,,0.00,weatherlink.com 1.10,2013-03-22 23:56:00,
2013-03-22 19:11:00,26.5,14.0,30.05,NE,45,4.0,5.0,59,0.00,,,0.00,weatherlink.com 1.10,2013-03-23 00:11:00,
2013-03-22 19:26:00,26.3,14.0,30.06,NE,47,0.0,3.0,61,0.00,,,0.00,weatherlink.com 1.10,2013-03-23 00:26:00,
2013-03-22 19:41:00,26.1,14.0,30.06,NE,47,0.0,3.0,60,0.00,,,0.00,weatherlink.com 1.10,2013-03-23 00:41:00,
2013-03-22 19:56:00,25.9,15.0,30.06,NE,47,2.0,3.0,63,0.00,,,0.00,weatherlink.com 1.10,2013-03-23 00:56:00,
2013-03-22 20:11:00,25.7,15.0,30.07,NE,47,0.0,2.0,63,0.00,,,0.00,weatherlink.com 1.10,2013-03-23 01:11:00,
2013-03-22 20:26:00,25.7,15.0,30.07,NE,46,0.0,1.0,65,0.00,,,0.00,weatherlink.com 1.10,2013-03-23 01:26:00,
2013-03-22 20:41:00,25.6,15.0,30.07,NE,47,0.0,0.0,64,0.00,,,0.00,weatherlink.com 1.10,2013-03-23 01:41:00,
2013-03-22 20:56:00,25.4,15.0,30.07,NE,47,0.0,0.0,65,0.00,,,0.00,weatherlink.com 1.10,2013-03-23 01:56:00,
2013-03-22 21:11:00,25.3,15.0,30.07,NE,47,0.0,2.0,66,0.00,,,0.00,weatherlink.com 1.10,2013-03-23 02:11:00,
2013-03-22 21:26:00,25.2,15.0,30.08,NE,47,1.0,3.0,65,0.00,,,0.00,weatherlink.com 1.10,2013-03-23 02:26:00,
2013-03-22 21:41:00,25.1,15.0,30.08,NE,47,0.0,1.0,66,0.00,,,0.00,weatherlink.com 1.10,2013-03-23 02:41:00,
2013-03-22 21:56:00,24.9,15.0,30.09,NE,46,0.0,1.0,66,0.00,,,0.00,weatherlink.com 1.10,2013-03-23 02:56:00,
2013-03-22 22:11:00,24.7,15.0,30.09,NE,46,0.0,1.0,67,0.00,,,0.00,weatherlink.com 1.10,2013-03-23 03:11:00,
2013-03-22 22:26:00,24.7,15.0,30.09,NE,47,0.0,0.0,68,0.00,,,0.00,weatherlink.com 1.10,2013-03-23 03:26:00,
2013-03-22 22:41:00,24.8,16.0,30.09,NE,47,0.0,1.0,68,0.00,,,0.00,weatherlink.com 1.10,2013-03-23 03:41:00,
2013-03-22 22:56:00,24.9,16.0,30.10,NE,47,0.0,3.0,69,0.00,,,0.00,weatherlink.com 1.10,2013-03-23 03:56:00,
2013-03-22 23:11:00,24.9,16.0,30.09,NE,47,0.0,1.0,69,0.00,,,0.00,weatherlink.com 1.10,2013-03-23 04:11:00,
2013-03-22 23:26:00,24.8,16.0,30.09,NE,47,0.0,2.0,69,0.00,,,0.00,weatherlink.com 1.10,2013-03-23 04:26:00,